This is the latest recevied weather packets stored in our database for station/object S51UL-6. If no packets are shown the sender has not sent any weather packets the latest 10 day(s).
| Time | Temp. | Humidity | Pressure | Rain* | Wind** | Luminosity | Snow |
|---|---|---|---|---|---|---|---|
| 1777912725 | 23.89° C | 32% | 1013.1 hPa | 0 mm | - | - | - |
| 1777912425 | 23.89° C | 31% | 1012.9 hPa | 0 mm | - | - | - |
| 1777912124 | 23.89° C | 32% | 1013.1 hPa | 0 mm | - | - | - |
| 1777911825 | 23.89° C | 32% | 1013.1 hPa | 0 mm | - | - | - |
| 1777911524 | 24.44° C | 32% | 1013 hPa | 0 mm | - | - | - |
| 1777911225 | 24.44° C | 33% | 1012.8 hPa | 0 mm | - | - | - |
| 1777910925 | 24.44° C | 32% | 1013.1 hPa | 0 mm | - | - | - |
| 1777910025 | 25° C | 31% | 1013 hPa | 0 mm | - | - | - |
| 1777909724 | 25° C | 31% | 1013.2 hPa | 0 mm | - | - | - |
| 1777908825 | 25.56° C | 30% | 1013.4 hPa | 0 mm | - | - | - |
| 1777908526 | 25.56° C | 30% | 1013.3 hPa | 0 mm | - | - | - |
| 1777908225 | 26.11° C | 32% | 1013.3 hPa | 0 mm | - | - | - |
| 1777907925 | 26.11° C | 31% | 1013.4 hPa | 0 mm | - | - | - |
| 1777907625 | 26.11° C | 32% | 1013.4 hPa | 0 mm | - | - | - |
| 1777907325 | 25.56° C | 31% | 1013.1 hPa | 0 mm | - | - | - |
| 1777907025 | 25.56° C | 32% | 1013.1 hPa | 0 mm | - | - | - |
| 1777906725 | 25.56° C | 32% | 1013.1 hPa | 0 mm | - | - | - |
| 1777906425 | 25.56° C | 32% | 1013.4 hPa | 0 mm | - | - | - |
| 1777906126 | 25.56° C | 31% | 1013.4 hPa | 0 mm | - | - | - |
| 1777905225 | 26.67° C | 31% | 1013.4 hPa | 0 mm | - | - | - |
| 1777904925 | 26.67° C | 31% | 1013.2 hPa | 0 mm | - | - | - |
| 1777904625 | 27.22° C | 30% | 1013.4 hPa | 0 mm | - | - | - |
| 1777904325 | 27.22° C | 30% | 1013.4 hPa | 0 mm | - | - | - |
| 1777903725 | 27.22° C | 30% | 1013.6 hPa | 0 mm | - | - | - |
| 1777903425 | 27.22° C | 30% | 1013.6 hPa | 0 mm | - | - | - |
* Rain latest hour (hover to see other rain measurements)
** Current wind speed in m/s (hover to see current wind gust speed)